Skip Page Navigation
NASA JPL Caltech
NASA Logo - Jet Propulsion Laboratory + View the NASA Portal
+ Center for Near-Earth Object Studies
JPL Home Earth Solar System Stars & Galaxies Technology
JPL Solar System Dynamics
BODIES ORBITS EPHEMERIDES TOOLS PHYSICAL DATA DISCOVERY FAQ SITE MAP
JPL Small-Body Database Browser
Search: [ help ]  
469850 (2005 TL126)
Classification: Main-belt Asteroid          SPK-ID: 2469850
Ephemeris | Orbit Diagram | Orbital Elements | Mission Design | Physical Parameters | Discovery Circumstances ]

[ show orbit diagram ]
Orbital Elements at Epoch 2459000.5 (2020-May-31.0) TDB
Reference: JPL 10 (heliocentric ecliptic J2000)
 Element Value Uncertainty (1-sigma)   Units 
e .151671503625639 7.5652e-08  
a 2.417173000362343 2.0279e-08 au
q 2.050556736874089 1.8358e-07 au
i 2.126862288785572 8.8004e-06 deg
node 41.20819862003029 0.00019981 deg
peri 277.7498472052977 0.0002026 deg
M 12.7243805406197 3.1674e-05 deg
tp 2458951.982973421619
(2020-Apr-12.48297342)
0.0001206 TDB
period 1372.650677371724
3.76
1.7274e-05
4.729e-08
d
yr
n .2622662895481233 3.3004e-09 deg/d
Q 2.783789263850597 2.3354e-08 au
  Orbit Determination Parameters
   # obs. used (total)      79  
   data-arc span      5496 days (15.05 yr)  
   first obs. used      2005-10-07  
   last obs. used      2020-10-24  
   planetary ephem.      DE431  
   SB-pert. ephem.      SB431-N16  
   condition code      0  
   norm. resid. RMS      .59933  
   source      ORB  
   producer      Otto Matic  
   solution date      2020-Nov-12 04:17:47  

Additional Information
 Earth MOID = 1.03879 au 
 Jupiter MOID = 2.50189 au 
 T_jup = 3.499 
[ show covariance matrix ]

Ephemeris | Orbit Diagram | Orbital Elements | Mission Design | Physical Parameters | Discovery Circumstances ]

Physical Parameter Table
Parameter Symbol Value Units Sigma Reference Notes
absolute magnitude H 18.2   n/a MPO477210  

469850 (2005 TL126)          Discovered 2005-Oct-07 by Spacewatch at Kitt Peak
Reference: Last Updated: 2016-08-22
Ephemeris | Orbit Diagram | Orbital Elements | Mission Design | Physical Parameters | Discovery Circumstances ]
ABOUT SSD CREDITS/AWARDS PRIVACY/COPYRIGHT GLOSSARY LINKS
FirstGov 2020-Nov-29 11:08 UT
(server date/time)  
NASA Home Page
Site Manager:   Ryan S. Park
Webmaster  Alan B. Chamberlin